Visalia, CA

12:30 AM PDT on April 24, 2017 (GMT -0700)
Visalia Municipal

Weather History for KVIS - June, 2013

Change the Weather History Date:

Friday, June 7, 2013

  Actual Average Record
Temperature  
Mean Temperature 82 °F -  
Max Temperature 98 °F 87 °F 104 °F (1955)
Min Temperature 66 °F 59 °F 46 °F (1950)
Cooling Degree Days 17    
Growing Degree Days 32 (Base 50)    
Moisture  
Dew Point 61 °F    
Average Humidity 49    
Maximum Humidity 73    
Minimum Humidity 29    
Precipitation  
Precipitation 0.00 in - - ()
Sea Level Pressure  
Sea Level Pressure 29.77 in    
Wind  
Wind Speed 5 mph (WNW)    
Max Wind Speed 12 mph    
Max Gust Speed 16 mph    
Visibility 10 miles    
Events      
Averages and records for this station are not official NWS values.
T = Trace of Precipitation, MM = Missing Value Source: NWS Daily Summary

Daily Weather History Graph

Daily Weather History Graph

Search for Another Location

Airport or City:

Trip Planner

Search our weather history database for the weather conditions in past years. The results will help you decide how hot, cold, wet, or windy it might be!

Date:

Astronomy

Jun. 07, 2013 Rise Set
Actual Time 5:39 AM PDT 8:13 PM PDT
Civil Twilight 5:09 AM PDT 8:43 PM PDT
Nautical Twilight 4:32 AM PDT 9:21 PM PDT
Astronomical Twilight 3:50 AM PDT 10:02 PM PDT
Moon 5:04 AM PDT (6/7) 7:33 PM PDT (6/7)
Length of Visible Light 15h 34m
Length of Day
14h 33m
Waning Crescent, 1% of the Moon is Illuminated
Jun 7
Waning Crescent
Jun 8
New
Jun 16
First Quarter
Jun 23
Full
Jun 29
Last Quarter

Hourly Weather History & Observations

Time (PDT) Temp. Heat Index Dew Point Humidity Pressure Visibility Wind Dir Wind Speed Gust Speed Precip Events Conditions
12:15 AM 78.8 °F - 59.0 °F 51% 29.82 in 10.0 mi NW 5.8 mph - N/A   Unknown
12:35 AM 78.8 °F - 59.0 °F 51% 29.81 in 10.0 mi NW 4.6 mph - N/A   Unknown
12:55 AM 77.0 °F - 60.8 °F 57% 29.81 in 10.0 mi NW 8.1 mph - N/A   Unknown
1:15 AM 75.2 °F - 59.0 °F 57% 29.81 in 10.0 mi NW 6.9 mph - N/A   Unknown
1:35 AM 75.2 °F - 59.0 °F 57% 29.81 in 10.0 mi NNW 4.6 mph - N/A   Unknown
1:55 AM 75.2 °F - 60.8 °F 61% 29.81 in 10.0 mi North 5.8 mph - N/A   Unknown
2:15 AM 75.2 °F - 60.8 °F 61% 29.81 in 10.0 mi NNW 6.9 mph - N/A   Unknown
2:35 AM 73.4 °F - 59.0 °F 61% 29.81 in 10.0 mi Calm Calm - N/A   Unknown
2:55 AM 71.6 °F - 59.0 °F 64% 29.81 in 10.0 mi West 4.6 mph - N/A   Unknown
3:15 AM 69.8 °F - 59.0 °F 68% 29.81 in 10.0 mi West 4.6 mph - N/A   Unknown
3:35 AM 69.8 °F - 57.2 °F 64% 29.80 in 10.0 mi West 4.6 mph - N/A   Unknown
3:55 AM 69.8 °F - 57.2 °F 64% 29.80 in 10.0 mi West 4.6 mph - N/A   Unknown
4:15 AM 69.8 °F - 57.2 °F 64% 29.80 in 10.0 mi West 4.6 mph - N/A   Unknown
4:35 AM 68.0 °F - 57.2 °F 68% 29.80 in 10.0 mi Calm Calm - N/A   Unknown
4:55 AM 68.0 °F - 57.2 °F 68% 29.80 in 10.0 mi Calm Calm - N/A   Unknown
5:15 AM 66.2 °F - 57.2 °F 73% 29.81 in 10.0 mi Calm Calm - N/A   Unknown
5:35 AM 66.2 °F - 57.2 °F 73% 29.81 in 10.0 mi Calm Calm - N/A   Unknown
5:55 AM 66.2 °F - 57.2 °F 73% 29.81 in 10.0 mi Calm Calm - N/A   Unknown
6:15 AM 68.0 °F - 57.2 °F 68% 29.82 in 10.0 mi Calm Calm - N/A   Unknown
6:35 AM 69.8 °F - 57.2 °F 64% 29.82 in 10.0 mi NW 4.6 mph - N/A   Unknown
6:55 AM 71.6 °F - 57.2 °F 60% 29.82 in 10.0 mi NNW 3.5 mph - N/A   Unknown
7:15 AM 71.6 °F - 57.2 °F 60% 29.82 in 10.0 mi Calm Calm - N/A   Unknown
7:35 AM 73.4 °F - 57.2 °F 57% 29.82 in 10.0 mi Calm Calm - N/A   Unknown
7:55 AM 73.4 °F - 59.0 °F 61% 29.83 in 9.0 mi Calm Calm - N/A   Unknown
8:15 AM 73.4 °F - 60.8 °F 65% 29.83 in 9.0 mi Calm Calm - N/A   Unknown
8:35 AM 75.2 °F - 59.0 °F 57% 29.83 in 10.0 mi South 3.5 mph - N/A   Unknown
8:55 AM 75.2 °F - 60.8 °F 61% 29.83 in 9.0 mi Calm Calm - N/A   Unknown
9:15 AM 78.8 °F - 60.8 °F 54% 29.83 in 5.0 mi SW 3.5 mph - N/A   Unknown
9:35 AM 80.6 °F 81.5 °F 60.8 °F 51% 29.82 in 10.0 mi WSW 3.5 mph - N/A   Unknown
9:55 AM 80.6 °F 81.5 °F 60.8 °F 51% 29.82 in 10.0 mi Calm Calm - N/A   Unknown
10:15 AM 82.4 °F 82.9 °F 60.8 °F 48% 29.82 in 10.0 mi West 4.6 mph - N/A   Unknown
10:35 AM 84.2 °F 84.4 °F 60.8 °F 45% 29.82 in 10.0 mi West 4.6 mph - N/A   Unknown
10:55 AM 84.2 °F 84.4 °F 60.8 °F 45% 29.82 in 10.0 mi Calm Calm - N/A   Unknown
11:15 AM 87.8 °F 88.5 °F 62.6 °F 43% 29.81 in 10.0 mi WNW 6.9 mph - N/A   Unknown
11:35 AM 89.6 °F 90.1 °F 62.6 °F 40% 29.81 in 10.0 mi West 4.6 mph - N/A   Unknown
11:55 AM 89.6 °F 89.5 °F 60.8 °F 38% 29.80 in 10.0 mi West 4.6 mph - N/A   Unknown
12:15 PM 89.6 °F 90.1 °F 62.6 °F 40% 29.79 in 10.0 mi West 4.6 mph - N/A   Unknown
12:35 PM 91.4 °F 91.4 °F 60.8 °F 36% 29.79 in 10.0 mi West 6.9 mph - N/A   Unknown
12:55 PM 91.4 °F 91.4 °F 60.8 °F 36% 29.78 in 10.0 mi West 5.8 mph - N/A   Unknown
1:15 PM 93.2 °F 94.1 °F 62.6 °F 36% 29.78 in 10.0 mi West 8.1 mph - N/A   Unknown
1:35 PM 96.8 °F 97.1 °F 60.8 °F 30% 29.77 in 10.0 mi West 3.5 mph - N/A   Unknown
1:55 PM 96.8 °F 97.1 °F 60.8 °F 30% 29.76 in 10.0 mi West 6.9 mph - N/A   Unknown
2:15 PM 96.8 °F 98.0 °F 62.6 °F 32% 29.75 in 10.0 mi West 6.9 mph - N/A   Unknown
2:35 PM 98.6 °F 99.4 °F 60.8 °F 29% 29.75 in 10.0 mi NW 6.9 mph - N/A   Unknown
2:55 PM 98.6 °F 100.0 °F 62.6 °F 30% 29.74 in 10.0 mi NW 9.2 mph - N/A   Unknown
3:15 PM 98.6 °F 100.0 °F 62.6 °F 30% 29.73 in 10.0 mi NW 11.5 mph - N/A   Unknown
3:35 PM 98.6 °F 100.0 °F 62.6 °F 30% 29.73 in 10.0 mi NNW 10.4 mph - N/A   Unknown
3:55 PM 98.6 °F 100.0 °F 62.6 °F 30% 29.72 in 10.0 mi NW 5.8 mph - N/A   Unknown
4:15 PM 98.6 °F 100.0 °F 62.6 °F 30% 29.71 in 10.0 mi NW 11.5 mph 16.1 mph N/A   Unknown
4:35 PM 98.6 °F 100.0 °F 62.6 °F 30% 29.71 in 10.0 mi NNW 9.2 mph - N/A   Unknown
4:55 PM 98.6 °F 100.0 °F 62.6 °F 30% 29.70 in 10.0 mi NNW 10.4 mph - N/A   Unknown
5:15 PM 98.6 °F 100.0 °F 62.6 °F 30% 29.70 in 10.0 mi WNW 8.1 mph - N/A   Unknown
5:35 PM 98.6 °F 100.0 °F 62.6 °F 30% 29.69 in 10.0 mi WNW 8.1 mph - N/A   Unknown
5:55 PM - - - N/A% 29.69 in 10.0 mi NW 9.2 mph - N/A   Unknown
6:15 PM - - - N/A% 29.68 in 10.0 mi NW 8.1 mph - N/A   Unknown
6:35 PM 98.6 °F 99.4 °F 60.8 °F 29% 29.69 in 10.0 mi NW 10.4 mph - N/A   Unknown
6:55 PM 96.8 °F 97.1 °F 60.8 °F 30% 29.68 in 10.0 mi NW 10.4 mph - N/A   Unknown
7:15 PM 96.8 °F 97.1 °F 60.8 °F 30% 29.69 in 10.0 mi NW 9.2 mph - N/A   Unknown
7:35 PM - - - N/A% 29.68 in 10.0 mi WNW 6.9 mph - N/A   Unknown
7:55 PM 93.2 °F 94.9 °F 64.4 °F 38% 29.69 in 10.0 mi WNW 8.1 mph - N/A   Unknown
8:15 PM 91.4 °F 93.2 °F 64.4 °F 41% 29.69 in 10.0 mi WNW 5.8 mph - N/A   Unknown
8:35 PM - - - N/A% 29.69 in 10.0 mi Calm Calm - N/A   Unknown
8:55 PM - - - N/A% 29.69 in 10.0 mi West 3.5 mph - N/A   Unknown
9:15 PM 84.2 °F 86.6 °F 66.2 °F 55% 29.70 in 10.0 mi Calm Calm - N/A   Unknown
9:35 PM 82.4 °F 84.6 °F 66.2 °F 58% 29.71 in 10.0 mi South 3.5 mph - N/A   Unknown
9:55 PM 82.4 °F 83.9 °F 64.4 °F 54% 29.71 in 10.0 mi Calm Calm - N/A   Unknown
10:15 PM 80.6 °F 82.7 °F 66.2 °F 61% 29.72 in 10.0 mi Calm Calm - N/A   Unknown
10:35 PM 80.6 °F 82.7 °F 66.2 °F 61% 29.72 in 10.0 mi Calm Calm - N/A   Unknown
10:55 PM - - - N/A% 29.71 in 10.0 mi Calm Calm - N/A   Unknown
11:15 PM 78.8 °F - 64.4 °F 61% 29.72 in 10.0 mi SE 3.5 mph - N/A   Unknown
11:35 PM - - - N/A% 29.72 in 10.0 mi ESE 3.5 mph - N/A   Unknown
11:55 PM - - - N/A% 29.71 in 10.0 mi Calm Calm - N/A   Unknown